Putnam Hall, Florida
Current Conditions -  °F | °C
As of 4:15 AM on Thursday 27 Nov 2014 (Local Time) from K42J Reporting Station
Clear Clear  
Wind Chill: 39°   Ceiling: Unl
Heat Index: 39°   Visibility: 10mi
Dew Point: 37°   Wind: 0mph
Humidity: 93%   Direction: NA
Pressure: 30.22"   Gusts: NA
Location:  29.74°N, 81.96°W
Report Text: K42J 270915Z AUTO 00000KT 10SM CLR 04/03 A3022 RMK AO1 TSNO
Loading
Personal Weather Stations






























Interactive Weather Map New forecast layout! Learn more

10-Day Weather Forecast

Advertisements
Track Severe Weather on mobile